History Data

Date (GMT-7:00) CPM ACPM uSv/h Latitude Longitude Altitude CO CO2 TVOC HCHO Air Pressure Temperature Humidity Type
2025-11-04 05:06:03 17 19.00 0.085000 41.649648 41.62752893 0 0 0 0 0 0 0 0 STD5.60
2025-11-04 05:01:01 20 18.40 0.100000 41.649648 41.62752893 0 0 0 0 0 0 0 0 STD5.60
2025-11-04 04:55:58 19 18.80 0.095000 41.649648 41.62752893 0 0 0 0 0 0 0 0 STD5.60
2025-11-04 04:50:53 14 17.70 0.070000 41.649648 41.62752893 0 0 0 0 0 0 0 0 STD5.60
2025-11-04 04:45:51 22 17.10 0.110000 41.649648 41.62752893 0 0 0 0 0 0 0 0 STD5.60
2025-11-04 04:40:49 23 17.60 0.115000 41.649648 41.62752893 0 0 0 0 0 0 0 0 STD5.60
2025-11-04 04:35:46 23 18.50 0.115000 41.649648 41.62752893 0 0 0 0 0 0 0 0 STD5.60
2025-11-04 04:30:44 24 16.70 0.120000 41.649648 41.62752893 0 0 0 0 0 0 0 0 STD5.60
2025-11-04 04:25:42 16 17.20 0.080000 41.649648 41.62752893 0 0 0 0 0 0 0 0 STD5.60
2025-11-04 04:20:39 16 19.80 0.080000 41.649648 41.62752893 0 0 0 0 0 0 0 0 STD5.60
2025-11-04 04:15:37 19 20.10 0.095000 41.649648 41.62752893 0 0 0 0 0 0 0 0 STD5.60
2025-11-04 04:10:35 20 18.30 0.100000 41.649648 41.62752893 0 0 0 0 0 0 0 0 STD5.60
2025-11-04 04:05:33 21 18.40 0.105000 41.649648 41.62752893 0 0 0 0 0 0 0 0 STD5.60
2025-11-04 04:00:31 18 17.50 0.090000 41.649648 41.62752893 0 0 0 0 0 0 0 0 STD5.60
2025-11-04 03:55:29 18 15.70 0.090000 41.649648 41.62752893 0 0 0 0 0 0 0 0 STD5.60
2025-11-04 03:50:25 15 16.70 0.075000 41.649648 41.62752893 0 0 0 0 0 0 0 0 STD5.60
2025-11-04 03:45:22 13 17.70 0.065000 41.649648 41.62752893 0 0 0 0 0 0 0 0 STD5.60
2025-11-04 03:40:20 15 19.00 0.075000 41.649648 41.62752893 0 0 0 0 0 0 0 0 STD5.60
2025-11-04 03:35:18 23 19.30 0.115000 41.649648 41.62752893 0 0 0 0 0 0 0 0 STD5.60
2025-11-04 03:30:16 19 18.00 0.095000 41.649648 41.62752893 0 0 0 0 0 0 0 0 STD5.60
2025-11-04 03:25:14 16 16.50 0.080000 41.649648 41.62752893 0 0 0 0 0 0 0 0 STD5.60
2025-11-04 03:20:11 17 16.30 0.085000 41.649648 41.62752893 0 0 0 0 0 0 0 0 STD5.60
2025-11-04 03:15:09 16 17.50 0.080000 41.649648 41.62752893 0 0 0 0 0 0 0 0 STD5.60
2025-11-04 03:10:07 21 18.20 0.105000 41.649648 41.62752893 0 0 0 0 0 0 0 0 STD5.60
2025-11-04 03:05:05 17 17.90 0.085000 41.649648 41.62752893 0 0 0 0 0 0 0 0 STD5.60
2025-11-04 03:00:03 12 19.00 0.060000 41.649648 41.62752893 0 0 0 0 0 0 0 0 STD5.60
2025-11-04 02:55:01 20 18.00 0.100000 41.649648 41.62752893 0 0 0 0 0 0 0 0 STD5.60
2025-11-04 02:49:57 16 17.40 0.080000 41.649648 41.62752893 0 0 0 0 0 0 0 0 STD5.60
2025-11-04 02:44:54 25 17.80 0.125000 41.649648 41.62752893 0 0 0 0 0 0 0 0 STD5.60
2025-11-04 02:39:52 15 16.40 0.075000 41.649648 41.62752893 0 0 0 0 0 0 0 0 STD5.60
2025-11-04 02:34:50 11 18.30 0.055000 41.649648 41.62752893 0 0 0 0 0 0 0 0 STD5.60
2025-11-04 02:29:48 19 18.20 0.095000 41.649648 41.62752893 0 0 0 0 0 0 0 0 STD5.60
2025-11-04 02:24:46 11 19.10 0.055000 41.649648 41.62752893 0 0 0 0 0 0 0 0 STD5.60
2025-11-04 02:19:44 24 20.80 0.120000 41.649648 41.62752893 0 0 0 0 0 0 0 0 STD5.60
2025-11-04 02:14:41 18 17.60 0.090000 41.649648 41.62752893 0 0 0 0 0 0 0 0 STD5.60
2025-11-04 02:09:39 17 16.50 0.085000 41.649648 41.62752893 0 0 0 0 0 0 0 0 STD5.60
2025-11-04 02:04:37 16 18.00 0.080000 41.649648 41.62752893 0 0 0 0 0 0 0 0 STD5.60
2025-11-04 01:59:35 16 19.10 0.080000 41.649648 41.62752893 0 0 0 0 0 0 0 0 STD5.60
2025-11-04 01:54:32 22 18.60 0.110000 41.649648 41.62752893 0 0 0 0 0 0 0 0 STD5.60
2025-11-04 01:49:28 24 17.30 0.120000 41.649648 41.62752893 0 0 0 0 0 0 0 0 STD5.60
2025-11-04 01:44:26 13 16.10 0.065000 41.649648 41.62752893 0 0 0 0 0 0 0 0 STD5.60
2025-11-04 01:39:24 24 16.50 0.120000 41.649648 41.62752893 0 0 0 0 0 0 0 0 STD5.60
2025-11-04 01:34:21 17 17.60 0.085000 41.649648 41.62752893 0 0 0 0 0 0 0 0 STD5.60
2025-11-04 01:29:19 16 16.90 0.080000 41.649648 41.62752893 0 0 0 0 0 0 0 0 STD5.60
2025-11-04 01:24:17 14 17.10 0.070000 41.649648 41.62752893 0 0 0 0 0 0 0 0 STD5.60
2025-11-04 01:19:14 12 18.20 0.060000 41.649648 41.62752893 0 0 0 0 0 0 0 0 STD5.60
2025-11-04 01:14:12 15 19.50 0.075000 41.649648 41.62752893 0 0 0 0 0 0 0 0 STD5.60
2025-11-04 01:09:10 23 18.30 0.115000 41.649648 41.62752893 0 0 0 0 0 0 0 0 STD5.60
2025-11-04 01:04:08 9 17.10 0.045000 41.649648 41.62752893 0 0 0 0 0 0 0 0 STD5.60
2025-11-04 00:59:06 17 19.00 0.085000 41.649648 41.62752893 0 0 0 0 0 0 0 0 STD5.60
2025-11-04 00:54:04 15 19.50 0.075000 41.649648 41.62752893 0 0 0 0 0 0 0 0 STD5.60
2025-11-04 00:48:59 22 17.70 0.110000 41.649648 41.62752893 0 0 0 0 0 0 0 0 STD5.60
2025-11-04 00:43:56 18 16.80 0.090000 41.649648 41.62752893 0 0 0 0 0 0 0 0 STD5.60
2025-11-04 00:38:55 19 18.50 0.095000 41.649648 41.62752893 0 0 0 0 0 0 0 0 STD5.60
2025-11-04 00:33:52 22 17.50 0.110000 41.649648 41.62752893 0 0 0 0 0 0 0 0 STD5.60
2025-11-04 00:28:50 16 18.60 0.080000 41.649648 41.62752893 0 0 0 0 0 0 0 0 STD5.60
2025-11-04 00:23:48 17 17.80 0.085000 41.649648 41.62752893 0 0 0 0 0 0 0 0 STD5.60
2025-11-04 00:18:46 16 15.20 0.080000 41.649648 41.62752893 0 0 0 0 0 0 0 0 STD5.60
2025-11-04 00:13:44 12 16.00 0.060000 41.649648 41.62752893 0 0 0 0 0 0 0 0 STD5.60
2025-11-04 00:08:42 11 17.40 0.055000 41.649648 41.62752893 0 0 0 0 0 0 0 0 STD5.60
2025-11-04 00:03:40 18 19.80 0.090000 41.649648 41.62752893 0 0 0 0 0 0 0 0 STD5.60
2025-11-03 23:58:38 26 20.60 0.130000 41.649648 41.62752893 0 0 0 0 0 0 0 0 STD5.60
2025-11-03 23:53:35 15 20.00 0.075000 41.649648 41.62752893 0 0 0 0 0 0 0 0 STD5.60
2025-11-03 23:48:30 19 18.50 0.095000 41.649648 41.62752893 0 0 0 0 0 0 0 0 STD5.60
2025-11-03 23:43:27 20 17.70 0.100000 41.649648 41.62752893 0 0 0 0 0 0 0 0 STD5.60
2025-11-03 23:38:25 24 17.90 0.120000 41.649648 41.62752893 0 0 0 0 0 0 0 0 STD5.60
2025-11-03 23:33:23 14 17.00 0.070000 41.649648 41.62752893 0 0 0 0 0 0 0 0 STD5.60
2025-11-03 23:28:21 15 17.20 0.075000 41.649648 41.62752893 0 0 0 0 0 0 0 0 STD5.60
2025-11-03 23:23:19 14 16.70 0.070000 41.649648 41.62752893 0 0 0 0 0 0 0 0 STD5.60
2025-11-03 23:18:16 17 17.20 0.085000 41.649648 41.62752893 0 0 0 0 0 0 0 0 STD5.60
2025-11-03 23:13:14 26 18.00 0.130000 41.649648 41.62752893 0 0 0 0 0 0 0 0 STD5.60
2025-11-03 23:08:12 20 17.20 0.100000 41.649648 41.62752893 0 0 0 0 0 0 0 0 STD5.60
2025-11-03 23:03:09 16 16.30 0.080000 41.649648 41.62752893 0 0 0 0 0 0 0 0 STD5.60
2025-11-03 22:58:08 15 15.30 0.075000 41.649648 41.62752893 0 0 0 0 0 0 0 0 STD5.60
2025-11-03 22:53:06 12 17.10 0.060000 41.649648 41.62752893 0 0 0 0 0 0 0 0 STD5.60
2025-11-03 22:48:01 14 18.00 0.070000 41.649648 41.62752893 0 0 0 0 0 0 0 0 STD5.60
2025-11-03 22:42:59 9 18.80 0.045000 41.649648 41.62752893 0 0 0 0 0 0 0 0 STD5.60
2025-11-03 22:37:56 27 20.50 0.135000 41.649648 41.62752893 0 0 0 0 0 0 0 0 STD5.60
2025-11-03 22:32:54 23 17.90 0.115000 41.649648 41.62752893 0 0 0 0 0 0 0 0 STD5.60
2025-11-03 22:27:52 17 16.30 0.085000 41.649648 41.62752893 0 0 0 0 0 0 0 0 STD5.60
2025-11-03 22:22:50 19 17.40 0.095000 41.649648 41.62752893 0 0 0 0 0 0 0 0 STD5.60
2025-11-03 22:17:48 18 16.50 0.090000 41.649648 41.62752893 0 0 0 0 0 0 0 0 STD5.60
2025-11-03 22:12:45 15 16.60 0.075000 41.649648 41.62752893 0 0 0 0 0 0 0 0 STD5.60
2025-11-03 22:07:43 13 16.90 0.065000 41.649648 41.62752893 0 0 0 0 0 0 0 0 STD5.60
2025-11-03 22:02:41 18 16.90 0.090000 41.649648 41.62752893 0 0 0 0 0 0 0 0 STD5.60
2025-11-03 21:57:39 12 17.80 0.060000 41.649648 41.62752893 0 0 0 0 0 0 0 0 STD5.60
2025-11-03 21:52:38 20 17.90 0.100000 41.649648 41.62752893 0 0 0 0 0 0 0 0 STD5.60
2025-11-03 21:47:32 23 17.00 0.115000 41.649648 41.62752893 0 0 0 0 0 0 0 0 STD5.60
2025-11-03 21:42:29 23 18.00 0.115000 41.649648 41.62752893 0 0 0 0 0 0 0 0 STD5.60
2025-11-03 21:37:27 21 17.80 0.105000 41.649648 41.62752893 0 0 0 0 0 0 0 0 STD5.60
2025-11-03 21:32:25 23 17.00 0.115000 41.649648 41.62752893 0 0 0 0 0 0 0 0 STD5.60
2025-11-03 21:27:23 18 16.70 0.090000 41.649648 41.62752893 0 0 0 0 0 0 0 0 STD5.60
2025-11-03 21:22:20 13 17.60 0.065000 41.649648 41.62752893 0 0 0 0 0 0 0 0 STD5.60
2025-11-03 21:17:18 19 17.90 0.095000 41.649648 41.62752893 0 0 0 0 0 0 0 0 STD5.60
2025-11-03 21:12:16 19 16.40 0.095000 41.649648 41.62752893 0 0 0 0 0 0 0 0 STD5.60
2025-11-03 21:07:14 11 17.10 0.055000 41.649648 41.62752893 0 0 0 0 0 0 0 0 STD5.60
2025-11-03 21:02:12 12 17.60 0.060000 41.649648 41.62752893 0 0 0 0 0 0 0 0 STD5.60
2025-11-03 20:57:10 22 17.20 0.110000 41.649648 41.62752893 0 0 0 0 0 0 0 0 STD5.60
2025-11-03 20:52:08 14 17.30 0.070000 41.649648 41.62752893 0 0 0 0 0 0 0 0 STD5.60
2025-11-03 20:47:04 13 16.50 0.065000 41.649648 41.62752893 0 0 0 0 0 0 0 0 STD5.60
2025-11-03 20:42:01 16 17.70 0.080000 41.649648 41.62752893 0 0 0 0 0 0 0 0 STD5.60
2025-11-03 20:36:59 19 18.10 0.095000 41.649648 41.62752893 0 0 0 0 0 0 0 0 STD5.60
2025-11-03 20:31:57 22 16.40 0.110000 41.649648 41.62752893 0 0 0 0 0 0 0 0 STD5.60
2025-11-03 20:26:55 27 16.90 0.135000 41.649648 41.62752893 0 0 0 0 0 0 0 0 STD5.60
2025-11-03 20:21:52 15 17.00 0.075000 41.649648 41.62752893 0 0 0 0 0 0 0 0 STD5.60
2025-11-03 20:16:51 13 18.20 0.065000 41.649648 41.62752893 0 0 0 0 0 0 0 0 STD5.60
2025-11-03 20:11:48 24 20.30 0.120000 41.649648 41.62752893 0 0 0 0 0 0 0 0 STD5.60
2025-11-03 20:06:46 21 19.40 0.105000 41.649648 41.62752893 0 0 0 0 0 0 0 0 STD5.60
2025-11-03 20:01:44 18 17.50 0.090000 41.649648 41.62752893 0 0 0 0 0 0 0 0 STD5.60
2025-11-03 19:56:42 13 17.30 0.065000 41.649648 41.62752893 0 0 0 0 0 0 0 0 STD5.60
2025-11-03 19:51:39 16 19.20 0.080000 41.649648 41.62752893 0 0 0 0 0 0 0 0 STD5.60
2025-11-03 19:46:35 20 19.80 0.100000 41.649648 41.62752893 0 0 0 0 0 0 0 0 STD5.60
2025-11-03 19:41:33 20 18.60 0.100000 41.649648 41.62752893 0 0 0 0 0 0 0 0 STD5.60
2025-11-03 19:36:31 17 17.30 0.085000 41.649648 41.62752893 0 0 0 0 0 0 0 0 STD5.60
2025-11-03 19:31:29 16 19.50 0.080000 41.649648 41.62752893 0 0 0 0 0 0 0 0 STD5.60
2025-11-03 19:26:27 22 21.50 0.110000 41.649648 41.62752893 0 0 0 0 0 0 0 0 STD5.60
2025-11-03 19:21:25 21 19.40 0.105000 41.649648 41.62752893 0 0 0 0 0 0 0 0 STD5.60
2025-11-03 19:16:22 18 18.70 0.090000 41.649648 41.62752893 0 0 0 0 0 0 0 0 STD5.60
2025-11-03 19:11:20 15 18.00 0.075000 41.649648 41.62752893 0 0 0 0 0 0 0 0 STD5.60
2025-11-03 19:06:18 19 18.00 0.095000 41.649648 41.62752893 0 0 0 0 0 0 0 0 STD5.60
2025-11-03 19:01:16 20 18.60 0.100000 41.649648 41.62752893 0 0 0 0 0 0 0 0 STD5.60
2025-11-03 18:56:13 18 17.90 0.090000 41.649648 41.62752893 0 0 0 0 0 0 0 0 STD5.60
2025-11-03 18:51:12 17 17.70 0.085000 41.649648 41.62752893 0 0 0 0 0 0 0 0 STD5.60
2025-11-03 18:46:07 18 19.30 0.090000 41.649648 41.62752893 0 0 0 0 0 0 0 0 STD5.60
2025-11-03 18:41:06 16 18.70 0.080000 41.649648 41.62752893 0 0 0 0 0 0 0 0 STD5.60
2025-11-03 18:36:03 13 15.70 0.065000 41.649648 41.62752893 0 0 0 0 0 0 0 0 STD5.60
2025-11-03 18:31:01 16 16.10 0.080000 41.649648 41.62752893 0 0 0 0 0 0 0 0 STD5.60
2025-11-03 18:25:59 15 17.90 0.075000 41.649648 41.62752893 0 0 0 0 0 0 0 0 STD5.60
2025-11-03 18:20:57 20 17.10 0.100000 41.649648 41.62752893 0 0 0 0 0 0 0 0 STD5.60
2025-11-03 18:15:55 14 16.90 0.070000 41.649648 41.62752893 0 0 0 0 0 0 0 0 STD5.60
2025-11-03 18:10:53 16 19.00 0.080000 41.649648 41.62752893 0 0 0 0 0 0 0 0 STD5.60
2025-11-03 18:05:50 10 18.80 0.050000 41.649648 41.62752893 0 0 0 0 0 0 0 0 STD5.60
2025-11-03 18:00:47 17 17.80 0.085000 41.649648 41.62752893 0 0 0 0 0 0 0 0 STD5.60
2025-11-03 17:55:45 14 18.00 0.070000 41.649648 41.62752893 0 0 0 0 0 0 0 0 STD5.60
2025-11-03 17:50:43 12 18.80 0.060000 41.649648 41.62752893 0 0 0 0 0 0 0 0 STD5.60
2025-11-03 17:45:28 18 18.70 0.090000 41.649648 41.62752893 0 0 0 0 0 0 0 0 STD5.60
2025-11-03 17:40:25 12 18.10 0.060000 41.649648 41.62752893 0 0 0 0 0 0 0 0 STD5.60
2025-11-03 17:35:23 19 17.40 0.095000 41.649648 41.62752893 0 0 0 0 0 0 0 0 STD5.60
2025-11-03 17:30:21 20 16.50 0.100000 41.649648 41.62752893 0 0 0 0 0 0 0 0 STD5.60
2025-11-03 17:25:19 14 16.50 0.070000 41.649648 41.62752893 0 0 0 0 0 0 0 0 STD5.60
2025-11-03 17:20:16 17 18.60 0.085000 41.649648 41.62752893 0 0 0 0 0 0 0 0 STD5.60
2025-11-03 17:15:14 19 20.90 0.095000 41.649648 41.62752893 0 0 0 0 0 0 0 0 STD5.60
2025-11-03 17:10:12 21 22.30 0.105000 41.649648 41.62752893 0 0 0 0 0 0 0 0 STD5.60
2025-11-03 17:05:10 25 21.40 0.125000 41.649648 41.62752893 0 0 0 0 0 0 0 0 STD5.60
2025-11-03 17:00:08 29 18.10 0.145000 41.649648 41.62752893 0 0 0 0 0 0 0 0 STD5.60
2025-11-03 16:55:06 20 17.00 0.100000 41.649648 41.62752893 0 0 0 0 0 0 0 0 STD5.60
2025-11-03 16:50:04 17 17.70 0.085000 41.649648 41.62752893 0 0 0 0 0 0 0 0 STD5.60
2025-11-03 16:44:58 16 18.60 0.080000 41.649648 41.62752893 0 0 0 0 0 0 0 0 STD5.60
2025-11-03 16:39:56 14 18.30 0.070000 41.649648 41.62752893 0 0 0 0 0 0 0 0 STD5.60
2025-11-03 16:34:54 16 16.30 0.080000 41.649648 41.62752893 0 0 0 0 0 0 0 0 STD5.60
2025-11-03 16:29:52 16 17.20 0.080000 41.649648 41.62752893 0 0 0 0 0 0 0 0 STD5.60
2025-11-03 16:24:50 14 18.40 0.070000 41.649648 41.62752893 0 0 0 0 0 0 0 0 STD5.60
2025-11-03 16:19:47 14 17.40 0.070000 41.649648 41.62752893 0 0 0 0 0 0 0 0 STD5.60
2025-11-03 16:14:45 16 16.60 0.080000 41.649648 41.62752893 0 0 0 0 0 0 0 0 STD5.60
2025-11-03 16:09:43 25 18.90 0.125000 41.649648 41.62752893 0 0 0 0 0 0 0 0 STD5.60
2025-11-03 16:04:41 21 19.10 0.105000 41.649648 41.62752893 0 0 0 0 0 0 0 0 STD5.60
2025-11-03 15:59:38 21 17.50 0.105000 41.649648 41.62752893 0 0 0 0 0 0 0 0 STD5.60
2025-11-03 15:54:36 22 17.40 0.110000 41.649648 41.62752893 0 0 0 0 0 0 0 0 STD5.60
2025-11-03 15:49:34 13 17.60 0.065000 41.649648 41.62752893 0 0 0 0 0 0 0 0 STD5.60
2025-11-03 15:44:19 12 19.20 0.060000 41.649648 41.62752893 0 0 0 0 0 0 0 0 STD5.60
2025-11-03 15:39:17 13 18.90 0.065000 41.649648 41.62752893 0 0 0 0 0 0 0 0 STD5.60
2025-11-03 15:34:15 18 17.60 0.090000 41.649648 41.62752893 0 0 0 0 0 0 0 0 STD5.60
2025-11-03 15:29:12 17 16.90 0.085000 41.649648 41.62752893 0 0 0 0 0 0 0 0 STD5.60
2025-11-03 15:24:11 23 17.50 0.115000 41.649648 41.62752893 0 0 0 0 0 0 0 0 STD5.60
2025-11-03 15:19:08 20 15.40 0.100000 41.649648 41.62752893 0 0 0 0 0 0 0 0 STD5.60
2025-11-03 15:14:06 10 16.20 0.050000 41.649648 41.62752893 0 0 0 0 0 0 0 0 STD5.60
2025-11-03 15:09:04 19 16.90 0.095000 41.649648 41.62752893 0 0 0 0 0 0 0 0 STD5.60
2025-11-03 15:04:01 16 17.30 0.080000 41.649648 41.62752893 0 0 0 0 0 0 0 0 STD5.60
2025-11-03 14:58:59 14 18.70 0.070000 41.649648 41.62752893 0 0 0 0 0 0 0 0 STD5.60
2025-11-03 14:53:57 21 18.30 0.105000 41.649648 41.62752893 0 0 0 0 0 0 0 0 STD5.60
2025-11-03 14:48:55 15 18.40 0.075000 41.649648 41.62752893 0 0 0 0 0 0 0 0 STD5.60
2025-11-03 14:43:51 24 17.30 0.120000 41.649648 41.62752893 0 0 0 0 0 0 0 0 STD5.60
2025-11-03 14:38:49 26 16.50 0.130000 41.649648 41.62752893 0 0 0 0 0 0 0 0 STD5.60
2025-11-03 14:33:47 15 17.60 0.075000 41.649648 41.62752893 0 0 0 0 0 0 0 0 STD5.60
2025-11-03 14:28:45 13 17.10 0.065000 41.649648 41.62752893 0 0 0 0 0 0 0 0 STD5.60
2025-11-03 14:23:43 16 15.20 0.080000 41.649648 41.62752893 0 0 0 0 0 0 0 0 STD5.60
2025-11-03 14:18:40 18 16.20 0.090000 41.649648 41.62752893 0 0 0 0 0 0 0 0 STD5.60
2025-11-03 14:13:38 20 17.40 0.100000 41.649648 41.62752893 0 0 0 0 0 0 0 0 STD5.60
2025-11-03 14:08:35 17 15.60 0.085000 41.649648 41.62752893 0 0 0 0 0 0 0 0 STD5.60
2025-11-03 14:03:33 9 19.00 0.045000 41.649648 41.62752893 0 0 0 0 0 0 0 0 STD5.60
2025-11-03 13:58:31 19 19.50 0.095000 41.649648 41.62752893 0 0 0 0 0 0 0 0 STD5.60
2025-11-03 13:53:29 14 14.30 0.070000 41.649648 41.62752893 0 0 0 0 0 0 0 0 STD5.60
2025-11-03 13:48:27 17 14.40 0.085000 41.649648 41.62752893 0 0 0 0 0 0 0 0 STD5.60
2025-11-03 13:43:23 16 14.80 0.080000 41.649648 41.62752893 0 0 0 0 0 0 0 0 STD5.60
2025-11-03 13:38:21 20 16.80 0.100000 41.649648 41.62752893 0 0 0 0 0 0 0 0 STD5.60
2025-11-03 13:33:18 19 17.60 0.095000 41.649648 41.62752893 0 0 0 0 0 0 0 0 STD5.60
2025-11-03 13:28:16 15 16.60 0.075000 41.649648 41.62752893 0 0 0 0 0 0 0 0 STD5.60
2025-11-03 13:23:14 18 17.00 0.090000 41.649648 41.62752893 0 0 0 0 0 0 0 0 STD5.60
2025-11-03 13:18:12 12 17.10 0.060000 41.649648 41.62752893 0 0 0 0 0 0 0 0 STD5.60
2025-11-03 13:13:09 20 16.80 0.100000 41.649648 41.62752893 0 0 0 0 0 0 0 0 STD5.60
2025-11-03 13:08:07 13 16.90 0.065000 41.649648 41.62752893 0 0 0 0 0 0 0 0 STD5.60
2025-11-03 13:03:05 20 18.00 0.100000 41.649648 41.62752893 0 0 0 0 0 0 0 0 STD5.60
2025-11-03 12:58:03 21 17.70 0.105000 41.649648 41.62752893 0 0 0 0 0 0 0 0 STD5.60
2025-11-03 12:53:01 23 16.80 0.115000 41.649648 41.62752893 0 0 0 0 0 0 0 0 STD5.60
2025-11-03 12:47:58 18 18.60 0.090000 41.649648 41.62752893 0 0 0 0 0 0 0 0 STD5.60
2025-11-03 12:42:54 20 17.90 0.100000 41.649648 41.62752893 0 0 0 0 0 0 0 0 STD5.60
2025-11-03 12:37:52 19 14.80 0.095000 41.649648 41.62752893 0 0 0 0 0 0 0 0 STD5.60
2025-11-03 12:32:50 15 15.90 0.075000 41.649648 41.62752893 0 0 0 0 0 0 0 0 STD5.60
2025-11-03 12:27:47 11 16.80 0.055000 41.649648 41.62752893 0 0 0 0 0 0 0 0 STD5.60
2025-11-03 12:22:46 13 17.80 0.065000 41.649648 41.62752893 0 0 0 0 0 0 0 0 STD5.60
2025-11-03 12:17:44 17 19.10 0.085000 41.649648 41.62752893 0 0 0 0 0 0 0 0 STD5.60
2025-11-03 12:12:41 23 16.20 0.115000 41.649648 41.62752893 0 0 0 0 0 0 0 0 STD5.60
2025-11-03 12:07:39 15 15.80 0.075000 41.649648 41.62752893 0 0 0 0 0 0 0 0 STD5.60
2025-11-03 12:02:38 18 17.00 0.090000 41.649648 41.62752893 0 0 0 0 0 0 0 0 STD5.60
2025-11-03 11:57:36 17 14.60 0.085000 41.649648 41.62752893 0 0 0 0 0 0 0 0 STD5.60
2025-11-03 11:52:34 13 6.30 0.065000 41.649648 41.62752893 0 0 0 0 0 0 0 0 STD5.60
2025-11-03 10:59:03 22 10.00 0.110000 41.649648 41.62752893 0 0 0 0 0 0 0 0 STD5.60
2025-11-02 12:04:35 14 17.90 0.070000 41.649648 41.62752893 0 0 0 0 0 0 0 0 STD5.60
2025-11-02 11:59:33 19 11.70 0.095000 41.649648 41.62752893 0 0 0 0 0 0 0 0 STD5.60
2025-11-02 11:54:31 14 2.30 0.070000 41.649648 41.62752893 0 0 0 0 0 0 0 0 STD5.60
2025-11-02 11:49:16 11 16.40 0.055000 41.649648 41.62752893 0 0 0 0 0 0 0 0 STD5.60
2025-11-02 11:44:14 15 16.50 0.075000 41.649648 41.62752893 0 0 0 0 0 0 0 0 STD5.60
2025-11-02 11:39:12 20 17.30 0.100000 41.649648 41.62752893 0 0 0 0 0 0 0 0 STD5.60
2025-11-02 11:34:10 19 18.40 0.095000 41.649648 41.62752893 0 0 0 0 0 0 0 0 STD5.60
2025-11-02 11:29:08 22 19.00 0.110000 41.649648 41.62752893 0 0 0 0 0 0 0 0 STD5.60
2025-11-02 11:24:05 31 18.30 0.155000 41.649648 41.62752893 0 0 0 0 0 0 0 0 STD5.60
2025-11-02 11:19:03 17 17.60 0.085000 41.649648 41.62752893 0 0 0 0 0 0 0 0 STD5.60
2025-11-02 11:14:01 22 16.30 0.110000 41.649648 41.62752893 0 0 0 0 0 0 0 0 STD5.60
2025-11-02 11:08:59 18 16.50 0.090000 41.649648 41.62752893 0 0 0 0 0 0 0 0 STD5.60
2025-11-02 11:03:57 22 17.40 0.110000 41.649648 41.62752893 0 0 0 0 0 0 0 0 STD5.60
2025-11-02 10:58:55 11 18.20 0.055000 41.649648 41.62752893 0 0 0 0 0 0 0 0 STD5.60
2025-11-02 10:53:53 27 18.70 0.135000 41.649648 41.62752893 0 0 0 0 0 0 0 0 STD5.60
2025-11-02 10:48:48 21 18.80 0.105000 41.649648 41.62752893 0 0 0 0 0 0 0 0 STD5.60
2025-11-02 10:43:46 18 17.40 0.090000 41.649648 41.62752893 0 0 0 0 0 0 0 0 STD5.60
2025-11-02 10:38:44 16 15.80 0.080000 41.649648 41.62752893 0 0 0 0 0 0 0 0 STD5.60
2025-11-02 10:33:42 20 17.40 0.100000 41.649648 41.62752893 0 0 0 0 0 0 0 0 STD5.60
2025-11-02 10:28:40 19 21.80 0.095000 41.649648 41.62752893 0 0 0 0 0 0 0 0 STD5.60
2025-11-02 10:23:38 23 22.90 0.115000 41.649648 41.62752893 0 0 0 0 0 0 0 0 STD5.60
2025-11-02 10:18:36 23 19.90 0.115000 41.649648 41.62752893 0 0 0 0 0 0 0 0 STD5.60
2025-11-02 10:13:34 26 16.60 0.130000 41.649648 41.62752893 0 0 0 0 0 0 0 0 STD5.60
2025-11-02 10:08:32 13 15.80 0.065000 41.649648 41.62752893 0 0 0 0 0 0 0 0 STD5.60
2025-11-02 10:03:30 14 18.30 0.070000 41.649648 41.62752893 0 0 0 0 0 0 0 0 STD5.60
2025-11-02 09:58:28 18 18.00 0.090000 41.649648 41.62752893 0 0 0 0 0 0 0 0 STD5.60
2025-11-02 09:53:26 13 14.30 0.065000 41.649648 41.62752893 0 0 0 0 0 0 0 0 STD5.60
2025-11-02 09:48:22 13 16.20 0.065000 41.649648 41.62752893 0 0 0 0 0 0 0 0 STD5.60
2025-11-02 09:43:20 16 18.40 0.080000 41.649648 41.62752893 0 0 0 0 0 0 0 0 STD5.60
2025-11-02 09:38:17 19 17.70 0.095000 41.649648 41.62752893 0 0 0 0 0 0 0 0 STD5.60
2025-11-02 09:33:16 17 17.60 0.085000 41.649648 41.62752893 0 0 0 0 0 0 0 0 STD5.60
2025-11-02 09:28:13 12 18.90 0.060000 41.649648 41.62752893 0 0 0 0 0 0 0 0 STD5.60
2025-11-02 09:23:11 21 18.50 0.105000 41.649648 41.62752893 0 0 0 0 0 0 0 0 STD5.60
2025-11-02 09:18:09 21 17.90 0.105000 41.649648 41.62752893 0 0 0 0 0 0 0 0 STD5.60
2025-11-02 09:13:07 19 18.90 0.095000 41.649648 41.62752893 0 0 0 0 0 0 0 0 STD5.60
2025-11-02 09:08:05 20 19.40 0.100000 41.649648 41.62752893 0 0 0 0 0 0 0 0 STD5.60
2025-11-02 09:03:03 18 18.30 0.090000 41.649648 41.62752893 0 0 0 0 0 0 0 0 STD5.60
2025-11-02 08:58:01 18 17.60 0.090000 41.649648 41.62752893 0 0 0 0 0 0 0 0 STD5.60
2025-11-02 08:52:59 12 19.00 0.060000 41.649648 41.62752893 0 0 0 0 0 0 0 0 STD5.60
2025-11-02 08:47:55 17 19.00 0.085000 41.649648 41.62752893 0 0 0 0 0 0 0 0 STD5.60
2025-11-02 08:42:53 21 17.70 0.105000 41.649648 41.62752893 0 0 0 0 0 0 0 0 STD5.60
2025-11-02 08:37:52 16 17.60 0.080000 41.649648 41.62752893 0 0 0 0 0 0 0 0 STD5.60
2025-11-02 08:32:49 16 18.00 0.080000 41.649648 41.62752893 0 0 0 0 0 0 0 0 STD5.60
2025-11-02 08:27:47 22 17.80 0.110000 41.649648 41.62752893 0 0 0 0 0 0 0 0 STD5.60
2025-11-02 08:22:45 21 17.80 0.105000 41.649648 41.62752893 0 0 0 0 0 0 0 0 STD5.60
2025-11-02 08:17:43 15 18.00 0.075000 41.649648 41.62752893 0 0 0 0 0 0 0 0 STD5.60
2025-11-02 08:12:41 20 17.30 0.100000 41.649648 41.62752893 0 0 0 0 0 0 0 0 STD5.60
2025-11-02 08:07:39 17 16.60 0.085000 41.649648 41.62752893 0 0 0 0 0 0 0 0 STD5.60
2025-11-02 08:02:37 18 16.50 0.090000 41.649648 41.62752893 0 0 0 0 0 0 0 0 STD5.60
2025-11-02 07:57:35 16 15.10 0.080000 41.649648 41.62752893 0 0 0 0 0 0 0 0 STD5.60
2025-11-02 07:52:32 17 13.80 0.085000 41.649648 41.62752893 0 0 0 0 0 0 0 0 STD5.60
2025-11-02 07:47:28 9 17.00 0.045000 41.649648 41.62752893 0 0 0 0 0 0 0 0 STD5.60
2025-11-02 07:42:26 17 18.10 0.085000 41.649648 41.62752893 0 0 0 0 0 0 0 0 STD5.60
2025-11-02 07:37:24 23 17.70 0.115000 41.649648 41.62752893 0 0 0 0 0 0 0 0 STD5.60
2025-11-02 07:32:22 29 17.20 0.145000 41.649648 41.62752893 0 0 0 0 0 0 0 0 STD5.60
2025-11-02 07:27:20 14 14.40 0.070000 41.649648 41.62752893 0 0 0 0 0 0 0 0 STD5.60
2025-11-02 07:22:18 18 14.90 0.090000 41.649648 41.62752893 0 0 0 0 0 0 0 0 STD5.60
2025-11-02 07:17:16 19 17.00 0.095000 41.649648 41.62752893 0 0 0 0 0 0 0 0 STD5.60
2025-11-02 07:12:14 14 21.10 0.070000 41.649648 41.62752893 0 0 0 0 0 0 0 0 STD5.60
2025-11-02 07:07:11 27 20.10 0.135000 41.649648 41.62752893 0 0 0 0 0 0 0 0 STD5.60
2025-11-02 07:02:09 11 16.80 0.055000 41.649648 41.62752893 0 0 0 0 0 0 0 0 STD5.60
2025-11-02 06:57:07 14 16.30 0.070000 41.649648 41.62752893 0 0 0 0 0 0 0 0 STD5.60
2025-11-02 06:52:05 13 14.40 0.065000 41.649648 41.62752893 0 0 0 0 0 0 0 0 STD5.60
2025-11-02 06:47:01 15 14.30 0.075000 41.649648 41.62752893 0 0 0 0 0 0 0 0 STD5.60
2025-11-02 06:41:59 18 16.80 0.090000 41.649648 41.62752893 0 0 0 0 0 0 0 0 STD5.60
2025-11-02 06:36:57 18 18.50 0.090000 41.649648 41.62752893 0 0 0 0 0 0 0 0 STD5.60
2025-11-02 06:31:56 17 16.00 0.085000 41.649648 41.62752893 0 0 0 0 0 0 0 0 STD5.60
2025-11-02 06:26:53 16 16.20 0.080000 41.649648 41.62752893 0 0 0 0 0 0 0 0 STD5.60
2025-11-02 06:21:51 18 18.20 0.090000 41.649648 41.62752893 0 0 0 0 0 0 0 0 STD5.60
2025-11-02 06:16:49 23 17.70 0.115000 41.649648 41.62752893 0 0 0 0 0 0 0 0 STD5.60
2025-11-02 06:11:47 16 18.00 0.080000 41.649648 41.62752893 0 0 0 0 0 0 0 0 STD5.60
2025-11-02 06:06:45 17 17.30 0.085000 41.649648 41.62752893 0 0 0 0 0 0 0 0 STD5.60
2025-11-02 06:01:43 19 16.20 0.095000 41.649648 41.62752893 0 0 0 0 0 0 0 0 STD5.60
2025-11-02 05:56:41 17 18.90 0.085000 41.649648 41.62752893 0 0 0 0 0 0 0 0 STD5.60
2025-11-02 05:51:39 19 17.70 0.095000 41.649648 41.62752893 0 0 0 0 0 0 0 0 STD5.60
2025-11-02 05:46:35 12 15.90 0.060000 41.649648 41.62752893 0 0 0 0 0 0 0 0 STD5.60
2025-11-02 05:41:32 9 17.80 0.045000 41.649648 41.62752893 0 0 0 0 0 0 0 0 STD5.60
2025-11-02 05:36:30 16 15.80 0.080000 41.649648 41.62752893 0 0 0 0 0 0 0 0 STD5.60
2025-11-02 05:31:28 14 15.70 0.070000 41.649648 41.62752893 0 0 0 0 0 0 0 0 STD5.60
2025-11-02 05:26:26 14 17.60 0.070000 41.649648 41.62752893 0 0 0 0 0 0 0 0 STD5.60
2025-11-02 05:21:24 20 18.00 0.100000 41.649648 41.62752893 0 0 0 0 0 0 0 0 STD5.60
2025-11-02 05:16:22 15 17.00 0.075000 41.649648 41.62752893 0 0 0 0 0 0 0 0 STD5.60
2025-11-02 05:11:20 15 16.60 0.075000 41.649648 41.62752893 0 0 0 0 0 0 0 0 STD5.60
2025-11-02 05:06:18 18 17.60 0.090000 41.649648 41.62752893 0 0 0 0 0 0 0 0 STD5.60
2025-11-02 05:01:16 22 19.40 0.110000 41.649648 41.62752893 0 0 0 0 0 0 0 0 STD5.60
2025-11-02 04:56:15 22 19.40 0.110000 41.649648 41.62752893 0 0 0 0 0 0 0 0 STD5.60
2025-11-02 04:51:12 15 19.70 0.075000 41.649648 41.62752893 0 0 0 0 0 0 0 0 STD5.60
2025-11-02 04:46:07 30 18.90 0.150000 41.649648 41.62752893 0 0 0 0 0 0 0 0 STD5.60
2025-11-02 04:41:05 17 17.50 0.085000 41.649648 41.62752893 0 0 0 0 0 0 0 0 STD5.60
2025-11-02 04:36:03 18 19.20 0.090000 41.649648 41.62752893 0 0 0 0 0 0 0 0 STD5.60
2025-11-02 04:31:01 16 18.20 0.080000 41.649648 41.62752893 0 0 0 0 0 0 0 0 STD5.60
2025-11-02 04:25:59 15 16.70 0.075000 41.649648 41.62752893 0 0 0 0 0 0 0 0 STD5.60
2025-11-02 04:20:57 18 16.70 0.090000 41.649648 41.62752893 0 0 0 0 0 0 0 0 STD5.60
Geiger Counter World Map       A real time radiation map.     Copyright 2015 All rights reserved.